User: anonymous   Login
Location: Unspecified
(0.0000°N, 0.0000°E)
Time: 18:40:06
(UTC+02:00)
Language:

TRAILBLAZER - Orbit

View from above orbital plane
View from above orbital plane
View from above satellite
View from above satellite

Ground track
Ground track

The orbit data is extracted from the following two-line orbital elements,

1 27609U 02058E   22272.25201209  .00000280  00000-0  56753-4 0  9995
2 27609  64.5564 194.5861 0053255 253.9373 105.5862 14.78793270 66863
Epoch (UTC): 29 September 2022 06:02:53
Eccentricity: 0.0053255
inclination: 64.5564°
perigee height: 596 km
apogee height: 670 km
right ascension of ascending node: 194.5861°
argument of perigee: 253.9373°
revolutions per day: 14.78793270
mean anomaly at epoch: 105.5862°
orbit number at epoch: 6686

The dashed part of the orbit path shows where the satellite is in the earth's shadow,  

DLR